星链-32813 (STARLINK-32813)

导读

STARLINK-32813是美国星链计划中的一颗卫星,于2025年2月1日08:00发射。星链项目旨在构建全球卫星互联网星座,为全球偏远地区提供高速互联网接入服务,该卫星是星链星座组网进程中的一员,将助力完善星座覆盖能力,推动全球卫星互联网服务的普及与拓展。

Basic Information
目录编号:
62869
目录名称:
STARLINK-32813
国际标识:
2025-022R
轨道中心:
EARTH
卫星名称:
星链-32813
卫星全名:
星链-32813 (STARLINK-32813)
卫星状态:
在轨 (已飞行580 天)
发射日期:
2025-02-01 UTC
国别 :
美国 (US)
星等 :
--
Orbit Information
数据来源 国际轨道数据
星历时间: 2026-09-04T04:25:15+0800
9小时前
查看轨道信息
半长轴: 6840.844km
偏心率: 0.0001005
轨道倾角: 53.159°
近地点辐角 83.890°
升交点赤经 19.506°
平近点角 276.222°
近地点: 462.019km
远地点: 463.395km
周期: 93.848分钟
每日圈数: 15.343989
Detailed Information
固有亮度:
5
最大亮度:
2.5
卫星平台:
Starlink V1.0
覆盖范围:
全球
运营商:
太空探索技术公司
运营商所在国:
美国
制造商(研发单位):
太空探索技术公司
制造商所在国:
美国
使用方式:
暂无
Satellite Introduction
Starlink 计划是 SpaceX 推出的全球卫星互联网项目,通过发射低轨道卫星,为全球尤其是偏远地区提供高速、低延迟的互联网服务。自 2019 年起,Starlink 已部署数千颗卫星,旨在缩小全球数字鸿沟,推动互联网普及。该项目还为军事、航空等行业提供通信支持,带来广泛经济效益。
2D Orbit Map
3D Orbit Map
Orbit Altitude Analysis Chart
Orbit Inclination Analysis Chart
Orbit Comprehensive Analysis Chart
View Comprehensive Chart
Conjunction Data List
Event ID Objects TCA Miss Dist (km) Collision Risk Probability Collision Risk Index (CRI) Action
CDM_260827-195605-212206-286921
2026-08-27T
19:56:07+0000
0.798 km
远距离
2.091651E-5 中风险 0.61
CDM_260903-202305-260206-286921
2026-09-03T
20:23:50+0000
2.762 km
极远距离
1.336105E-6 低风险 0.38
CDM_260903-090804-974206-286921
2026-09-03T
09:08:20+0000
2.629 km
极远距离
7.843819E-7 极低风险 0.33